Tracking 32139 objects as of 18-Nov-2025
HD Live streaming from Space Station
objects crossing your sky now

STARLINK-34790

Track STARLINK-34790 now!
10-day predictions
STARLINK-34790 is classified as:


NORAD ID: 65690
Int'l Code: 2025-212Q
Perigee: 481.2 km
Apogee: 483.5 km
Inclination: 53.2 °
Period: 94.1 minutes
Semi major axis: 6853 km
RCS: Unknown
Launch date: September 21, 2025
Source: United States (US)
Launch site: AIR FORCE WESTERN TEST RANGE (AFWTR)
Your satellite tracking list
Your tracking list is empty




NASA's NSSDC Master Catalog

Two Line Element Set (TLE):
1 65690U 25212Q   25321.55923417  .00045204  00000-0  15290-2 0  9991
2 65690  53.1574 146.6680 0001637  76.7159 283.4025 15.30200523 10024
Source of the keplerian elements: AFSPC